sat.trackr.live / text

‹ back to catalog

STARLINK-4126

NORAD 52867 · 2022-062AP

PAYLOAD ACTIVE UNKNOWN

§ Identity

Operator
Country
US
Launch date
2022-06-17
Launch site
AFETR
Launch vehicle
Mass (kg)
RCS (m²)

Purposes: comms

External: N2YO · Heavens-Above · Gunter

§ Orbital elements

Epoch: 2026-05-25T00:32:49.521696Z

Period
95.44 min
Inclination
53.2141°
Eccentricity
0.0001710
Mean motion
15.08835118 rev/d
Perigee alt
538.6 km
Apogee alt
540.9 km
Semi-major
6,917.9 km
B*
6.3124e-6
RAAN
41.4450°
Arg perigee
63.7617°
Mean anomaly
296.3551°
Rev number
21,745

§ Raw data

STARLINK-41261 52867U 22062AP  26145.02279539 -.00000188  00000+0  63124-5 0  99932 52867  53.2141  41.4450 0001710  63.7617 296.3551 15.08835118217453

JSON: /api/v1/satellites/52867 · /tle

For live sub-satellite position, see the globe view (requires WebGL).

§ Visibility from observer

Set your observer location to see the next 7 days of passes ≥ 10°. The values pass through the URL so the page stays shareable.

No JS? Fill the form by hand. The geolocation button needs JavaScript.